Time,TemperatureF,DewpointF,PressureIn,WindDirection,WindDirectionDegrees,WindSpeedMPH,WindSpeedGustMPH,Humidity,HourlyPrecipIn,Conditions,Clouds,dailyrainin,SoftwareType,DateUTC
2013-08-03 00:02:00,82.0,-99.9,29.97,SE,128,11.0,15.0,-999,-99.99,,,-99.99,,2013-08-03 05:02:00,
2013-08-03 00:12:00,82.0,-99.9,29.97,SE,127,11.0,17.0,-999,-99.99,,,-99.99,,2013-08-03 05:12:00,
2013-08-03 00:32:00,82.0,-99.9,29.97,SE,128,10.0,15.0,-999,-99.99,,,-99.99,,2013-08-03 05:32:00,
2013-08-03 00:42:00,82.0,-99.9,29.97,SE,131,11.0,16.0,-999,-99.99,,,-99.99,,2013-08-03 05:42:00,
2013-08-03 00:53:00,82.0,-99.9,29.97,SE,127,13.0,18.0,-999,-99.99,,,-99.99,,2013-08-03 05:53:00,
2013-08-03 01:02:00,82.0,-99.9,29.97,SE,129,13.0,16.0,-999,-99.99,,,-99.99,,2013-08-03 06:02:00,
2013-08-03 01:12:00,82.0,-99.9,29.97,SE,135,10.0,15.0,-999,-99.99,,,-99.99,,2013-08-03 06:12:00,
2013-08-03 01:33:00,82.0,-99.9,29.97,SE,135,10.0,13.0,-999,-99.99,,,-99.99,,2013-08-03 06:33:00,
2013-08-03 01:42:00,82.0,-99.9,29.97,SE,133,10.0,13.0,-999,-99.99,,,-99.99,,2013-08-03 06:42:00,
2013-08-03 01:52:00,82.0,-99.9,29.97,SE,128,9.0,11.0,-999,-99.99,,,-99.99,,2013-08-03 06:52:00,
2013-08-03 02:02:00,82.0,-99.9,29.97,SE,130,10.0,13.0,-999,-99.99,,,-99.99,,2013-08-03 07:02:00,
2013-08-03 02:12:00,82.0,-99.9,29.97,SE,135,11.0,13.0,-999,-99.99,,,-99.99,,2013-08-03 07:12:00,
2013-08-03 02:32:00,82.0,-99.9,29.97,SE,136,11.0,14.0,-999,-99.99,,,-99.99,,2013-08-03 07:32:00,
2013-08-03 02:43:00,82.0,-99.9,29.97,SE,142,10.0,13.0,-999,-99.99,,,-99.99,,2013-08-03 07:43:00,
2013-08-03 02:53:00,82.0,-99.9,29.97,SE,137,8.0,11.0,-999,-99.99,,,-99.99,,2013-08-03 07:53:00,
2013-08-03 03:02:00,82.0,-99.9,29.97,SE,142,8.0,12.0,-999,-99.99,,,-99.99,,2013-08-03 08:02:00,
2013-08-03 03:12:00,82.0,-99.9,29.96,SE,146,9.0,13.0,-999,-99.99,,,-99.99,,2013-08-03 08:12:00,
2013-08-03 03:32:00,81.0,-99.9,29.96,SE,145,7.0,10.0,-999,-99.99,,,-99.99,,2013-08-03 08:32:00,
2013-08-03 03:43:00,81.0,-99.9,29.96,SE,146,6.0,9.0,-999,-99.99,,,-99.99,,2013-08-03 08:43:00,
2013-08-03 03:52:00,81.0,-99.9,29.96,SSE,153,6.0,8.0,-999,-99.99,,,-99.99,,2013-08-03 08:52:00,
2013-08-03 04:02:00,81.0,-99.9,29.96,SSE,153,6.0,8.0,-999,-99.99,,,-99.99,,2013-08-03 09:02:00,
2013-08-03 04:12:00,81.0,-99.9,29.95,SSE,153,6.0,8.0,-999,-99.99,,,-99.99,,2013-08-03 09:12:00,
2013-08-03 04:32:00,81.0,-99.9,29.95,SSE,160,6.0,7.0,-999,-99.99,,,-99.99,,2013-08-03 09:32:00,
2013-08-03 04:43:00,81.0,-99.9,29.95,SSE,159,6.0,9.0,-999,-99.99,,,-99.99,,2013-08-03 09:43:00,
2013-08-03 04:53:00,81.0,-99.9,29.95,SSE,163,5.0,8.0,-999,-99.99,,,-99.99,,2013-08-03 09:53:00,
2013-08-03 05:02:00,81.0,-99.9,29.95,SSE,164,6.0,7.0,-999,-99.99,,,-99.99,,2013-08-03 10:02:00,
2013-08-03 05:12:00,81.0,-99.9,29.95,SSE,166,5.0,7.0,-999,-99.99,,,-99.99,,2013-08-03 10:12:00,
2013-08-03 05:33:00,81.0,-99.9,29.95,South,174,5.0,6.0,-999,-99.99,,,-99.99,,2013-08-03 10:33:00,
2013-08-03 05:43:00,81.0,-99.9,29.95,South,177,5.0,5.0,-999,-99.99,,,-99.99,,2013-08-03 10:43:00,
2013-08-03 05:53:00,81.0,-99.9,29.95,SSE,167,5.0,7.0,-999,-99.99,,,-99.99,,2013-08-03 10:53:00,
2013-08-03 06:02:00,81.0,-99.9,29.95,SSE,163,4.0,6.0,-999,-99.99,,,-99.99,,2013-08-03 11:02:00,
2013-08-03 06:12:00,81.0,-99.9,29.95,SSE,167,4.0,6.0,-999,-99.99,,,-99.99,,2013-08-03 11:12:00,
2013-08-03 06:32:00,81.0,-99.9,29.96,SSE,165,4.0,7.0,-999,-99.99,,,-99.99,,2013-08-03 11:32:00,
2013-08-03 06:43:00,81.0,-99.9,29.96,SSE,163,4.0,5.0,-999,-99.99,,,-99.99,,2013-08-03 11:43:00,
2013-08-03 06:53:00,81.0,-99.9,29.96,SSE,161,3.0,4.0,-999,-99.99,,,-99.99,,2013-08-03 11:53:00,
2013-08-03 07:03:00,81.0,-99.9,29.96,SSE,151,3.0,5.0,-999,-99.99,,,-99.99,,2013-08-03 12:03:00,
2013-08-03 07:12:00,81.0,-99.9,29.96,SE,146,4.0,5.0,-999,-99.99,,,-99.99,,2013-08-03 12:12:00,
2013-08-03 07:33:00,81.0,-99.9,29.97,SSE,153,4.0,5.0,-999,-99.99,,,-99.99,,2013-08-03 12:33:00,
2013-08-03 07:43:00,81.0,-99.9,29.97,SSE,150,4.0,6.0,-999,-99.99,,,-99.99,,2013-08-03 12:43:00,
2013-08-03 07:53:00,81.0,-99.9,29.97,SSE,151,4.0,6.0,-999,-99.99,,,-99.99,,2013-08-03 12:53:00,
2013-08-03 08:02:00,82.0,-99.9,29.98,SSE,147,6.0,7.0,-999,-99.99,,,-99.99,,2013-08-03 13:02:00,
2013-08-03 08:12:00,82.0,-99.9,29.98,SSE,149,6.0,7.0,-999,-99.99,,,-99.99,,2013-08-03 13:12:00,
2013-08-03 08:33:00,82.0,-99.9,29.98,SE,146,7.0,9.0,-999,-99.99,,,-99.99,,2013-08-03 13:33:00,
2013-08-03 08:43:00,83.0,-99.9,29.98,SSE,149,6.0,10.0,-999,-99.99,,,-99.99,,2013-08-03 13:43:00,
2013-08-03 08:52:00,83.0,-99.9,29.98,SSE,156,8.0,10.0,-999,-99.99,,,-99.99,,2013-08-03 13:52:00,
2013-08-03 09:02:00,83.0,-99.9,29.98,SSE,149,7.0,10.0,-999,-99.99,,,-99.99,,2013-08-03 14:02:00,
2013-08-03 09:13:00,83.0,-99.9,29.98,SSE,152,7.0,10.0,-999,-99.99,,,-99.99,,2013-08-03 14:13:00,
2013-08-03 09:33:00,84.0,-99.9,29.99,SSE,168,9.0,11.0,-999,-99.99,,,-99.99,,2013-08-03 14:33:00,
2013-08-03 09:43:00,84.0,-99.9,29.99,SSE,158,7.0,13.0,-999,-99.99,,,-99.99,,2013-08-03 14:43:00,
2013-08-03 09:52:00,84.0,-99.9,29.99,SE,146,9.0,14.0,-999,-99.99,,,-99.99,,2013-08-03 14:52:00,
2013-08-03 10:02:00,84.0,-99.9,29.99,SSE,168,10.0,13.0,-999,-99.99,,,-99.99,,2013-08-03 15:02:00,
2013-08-03 10:12:00,85.0,-99.9,29.99,SSE,153,8.0,11.0,-999,-99.99,,,-99.99,,2013-08-03 15:12:00,
2013-08-03 10:32:00,85.0,-99.9,29.99,SE,146,10.0,13.0,-999,-99.99,,,-99.99,,2013-08-03 15:32:00,
2013-08-03 10:43:00,85.0,-99.9,30.00,SSE,150,8.0,13.0,-999,-99.99,,,-99.99,,2013-08-03 15:43:00,
2013-08-03 10:53:00,85.0,-99.9,30.00,SE,143,10.0,13.0,-999,-99.99,,,-99.99,,2013-08-03 15:53:00,
2013-08-03 11:02:00,85.0,-99.9,30.00,SSE,147,10.0,13.0,-999,-99.99,,,-99.99,,2013-08-03 16:02:00,
2013-08-03 11:13:00,85.0,-99.9,30.00,SE,146,11.0,15.0,-999,-99.99,,,-99.99,,2013-08-03 16:13:00,
2013-08-03 11:33:00,85.0,-99.9,30.00,SE,142,9.0,14.0,-999,-99.99,,,-99.99,,2013-08-03 16:33:00,
2013-08-03 11:43:00,86.0,-99.9,30.01,SSE,156,10.0,15.0,-999,-99.99,,,-99.99,,2013-08-03 16:43:00,
2013-08-03 11:53:00,86.0,-99.9,30.01,SSE,163,10.0,16.0,-999,-99.99,,,-99.99,,2013-08-03 16:53:00,
2013-08-03 12:03:00,86.0,-99.9,30.01,SSE,156,10.0,15.0,-999,-99.99,,,-99.99,,2013-08-03 17:03:00,
2013-08-03 12:12:00,86.0,-99.9,30.01,SSE,164,10.0,16.0,-999,-99.99,,,-99.99,,2013-08-03 17:12:00,
2013-08-03 12:33:00,85.0,-99.9,30.01,SE,131,11.0,17.0,-999,-99.99,,,-99.99,,2013-08-03 17:33:00,
2013-08-03 12:43:00,85.0,-99.9,30.01,SE,135,12.0,15.0,-999,-99.99,,,-99.99,,2013-08-03 17:43:00,
2013-08-03 12:52:00,86.0,-99.9,30.01,SSE,150,12.0,18.0,-999,-99.99,,,-99.99,,2013-08-03 17:52:00,
2013-08-03 13:02:00,85.0,-99.9,30.00,SE,126,13.0,17.0,-999,-99.99,,,-99.99,,2013-08-03 18:02:00,
2013-08-03 13:12:00,85.0,-99.9,30.00,SE,134,13.0,16.0,-999,-99.99,,,-99.99,,2013-08-03 18:12:00,
2013-08-03 13:32:00,86.0,-99.9,30.00,SE,127,12.0,16.0,-999,-99.99,,,-99.99,,2013-08-03 18:32:00,
2013-08-03 13:43:00,86.0,-99.9,30.00,SE,136,11.0,18.0,-999,-99.99,,,-99.99,,2013-08-03 18:43:00,
2013-08-03 13:53:00,86.0,-99.9,30.00,SE,131,14.0,19.0,-999,-99.99,,,-99.99,,2013-08-03 18:53:00,
2013-08-03 14:02:00,86.0,-99.9,30.00,ESE,115,11.0,13.0,-999,-99.99,,,-99.99,,2013-08-03 19:02:00,
2013-08-03 14:12:00,85.0,-99.9,30.00,ESE,114,13.0,17.0,-999,-99.99,,,-99.99,,2013-08-03 19:12:00,
2013-08-03 14:33:00,84.0,-99.9,30.00,ESE,108,15.0,18.0,-999,-99.99,,,-99.99,,2013-08-03 19:33:00,
2013-08-03 14:43:00,85.0,-99.9,29.99,ESE,112,15.0,19.0,-999,-99.99,,,-99.99,,2013-08-03 19:43:00,
2013-08-03 14:53:00,84.0,-99.9,29.99,ESE,110,15.0,20.0,-999,-99.99,,,-99.99,,2013-08-03 19:53:00,
2013-08-03 15:02:00,85.0,-99.9,29.99,ESE,104,16.0,21.0,-999,-99.99,,,-99.99,,2013-08-03 20:02:00,
2013-08-03 15:12:00,85.0,-99.9,29.99,ESE,122,14.0,19.0,-999,-99.99,,,-99.99,,2013-08-03 20:12:00,
2013-08-03 15:32:00,84.0,-99.9,29.98,ESE,104,15.0,19.0,-999,-99.99,,,-99.99,,2013-08-03 20:32:00,
2013-08-03 15:42:00,85.0,-99.9,29.98,ESE,114,13.0,18.0,-999,-99.99,,,-99.99,,2013-08-03 20:42:00,
2013-08-03 15:52:00,85.0,-99.9,29.98,ESE,120,15.0,19.0,-999,-99.99,,,-99.99,,2013-08-03 20:52:00,
2013-08-03 16:02:00,85.0,-99.9,29.98,ESE,111,14.0,19.0,-999,-99.99,,,-99.99,,2013-08-03 21:02:00,
2013-08-03 16:12:00,85.0,-99.9,29.97,ESE,111,15.0,20.0,-999,-99.99,,,-99.99,,2013-08-03 21:12:00,
2013-08-03 16:32:00,85.0,-99.9,29.97,ESE,114,17.0,22.0,-999,-99.99,,,-99.99,,2013-08-03 21:32:00,
2013-08-03 16:42:00,85.0,-99.9,29.97,ESE,118,16.0,21.0,-999,-99.99,,,-99.99,,2013-08-03 21:42:00,
2013-08-03 16:52:00,86.0,-99.9,29.96,ESE,115,15.0,19.0,-999,-99.99,,,-99.99,,2013-08-03 21:52:00,
2013-08-03 17:02:00,85.0,-99.9,29.96,ESE,110,15.0,20.0,-999,-99.99,,,-99.99,,2013-08-03 22:02:00,
2013-08-03 17:12:00,86.0,-99.9,29.96,ESE,121,15.0,21.0,-999,-99.99,,,-99.99,,2013-08-03 22:12:00,
2013-08-03 17:33:00,86.0,-99.9,29.96,ESE,122,15.0,21.0,-999,-99.99,,,-99.99,,2013-08-03 22:33:00,
2013-08-03 17:43:00,85.0,-99.9,29.96,ESE,110,17.0,19.0,-999,-99.99,,,-99.99,,2013-08-03 22:43:00,
2013-08-03 17:52:00,85.0,-99.9,29.96,ESE,117,16.0,20.0,-999,-99.99,,,-99.99,,2013-08-03 22:52:00,
2013-08-03 18:02:00,85.0,-99.9,29.96,ESE,113,17.0,20.0,-999,-99.99,,,-99.99,,2013-08-03 23:02:00,
2013-08-03 18:12:00,86.0,-99.9,29.96,ESE,121,15.0,21.0,-999,-99.99,,,-99.99,,2013-08-03 23:12:00,
2013-08-03 18:32:00,85.0,-99.9,29.96,ESE,118,16.0,21.0,-999,-99.99,,,-99.99,,2013-08-03 23:32:00,
2013-08-03 18:43:00,86.0,-99.9,29.96,ESE,120,15.0,23.0,-999,-99.99,,,-99.99,,2013-08-03 23:43:00,
2013-08-03 18:52:00,85.0,-99.9,29.96,ESE,117,16.0,21.0,-999,-99.99,,,-99.99,,2013-08-03 23:52:00,
2013-08-03 19:03:00,86.0,-99.9,29.95,SE,124,14.0,19.0,-999,-99.99,,,-99.99,,2013-08-04 00:03:00,
2013-08-03 19:12:00,85.0,-99.9,29.95,ESE,120,15.0,20.0,-999,-99.99,,,-99.99,,2013-08-04 00:12:00,
2013-08-03 19:32:00,85.0,-99.9,29.95,ESE,117,16.0,20.0,-999,-99.99,,,-99.99,,2013-08-04 00:32:00,
2013-08-03 19:42:00,85.0,-99.9,29.95,ESE,117,15.0,20.0,-999,-99.99,,,-99.99,,2013-08-04 00:42:00,
2013-08-03 19:53:00,85.0,-99.9,29.95,ESE,112,14.0,17.0,-999,-99.99,,,-99.99,,2013-08-04 00:53:00,
2013-08-03 20:02:00,84.0,-99.9,29.95,ESE,120,16.0,20.0,-999,-99.99,,,-99.99,,2013-08-04 01:02:00,
2013-08-03 20:12:00,84.0,-99.9,29.96,ESE,120,14.0,17.0,-999,-99.99,,,-99.99,,2013-08-04 01:12:00,
2013-08-03 20:32:00,84.0,-99.9,29.96,SE,126,13.0,19.0,-999,-99.99,,,-99.99,,2013-08-04 01:32:00,
2013-08-03 20:42:00,84.0,-99.9,29.96,ESE,121,14.0,19.0,-999,-99.99,,,-99.99,,2013-08-04 01:42:00,
2013-08-03 20:53:00,84.0,-99.9,29.96,SE,127,12.0,18.0,-999,-99.99,,,-99.99,,2013-08-04 01:53:00,
2013-08-03 21:03:00,84.0,-99.9,29.96,ESE,121,13.0,17.0,-999,-99.99,,,-99.99,,2013-08-04 02:03:00,
2013-08-03 21:12:00,84.0,-99.9,29.96,SE,127,13.0,18.0,-999,-99.99,,,-99.99,,2013-08-04 02:12:00,
2013-08-03 21:32:00,84.0,-99.9,29.96,ESE,119,14.0,20.0,-999,-99.99,,,-99.99,,2013-08-04 02:32:00,
2013-08-03 21:42:00,84.0,-99.9,29.97,ESE,122,15.0,19.0,-999,-99.99,,,-99.99,,2013-08-04 02:42:00,
2013-08-03 21:52:00,84.0,-99.9,29.97,ESE,122,13.0,18.0,-999,-99.99,,,-99.99,,2013-08-04 02:52:00,
2013-08-03 22:02:00,84.0,-99.9,29.98,SE,125,15.0,19.0,-999,-99.99,,,-99.99,,2013-08-04 03:02:00,
2013-08-03 22:12:00,84.0,-99.9,29.98,SE,124,16.0,21.0,-999,-99.99,,,-99.99,,2013-08-04 03:12:00,
2013-08-03 22:32:00,84.0,-99.9,29.99,SE,129,13.0,17.0,-999,-99.99,,,-99.99,,2013-08-04 03:32:00,
2013-08-03 22:42:00,84.0,-99.9,30.00,SE,130,13.0,18.0,-999,-99.99,,,-99.99,,2013-08-04 03:42:00,
2013-08-03 22:52:00,84.0,-99.9,30.01,SE,132,11.0,17.0,-999,-99.99,,,-99.99,,2013-08-04 03:52:00,
2013-08-03 23:03:00,84.0,-99.9,30.01,SE,135,12.0,16.0,-999,-99.99,,,-99.99,,2013-08-04 04:03:00,
2013-08-03 23:12:00,83.0,-99.9,30.01,SE,130,11.0,14.0,-999,-99.99,,,-99.99,,2013-08-04 04:12:00,
2013-08-03 23:32:00,83.0,-99.9,30.02,SE,137,10.0,14.0,-999,-99.99,,,-99.99,,2013-08-04 04:32:00,
2013-08-03 23:42:00,83.0,-99.9,30.01,SE,137,12.0,15.0,-999,-99.99,,,-99.99,,2013-08-04 04:42:00,
2013-08-03 23:52:00,83.0,-99.9,30.01,SE,136,11.0,14.0,-999,-99.99,,,-99.99,,2013-08-04 04:52:00,